Weather History for KRKR - August, 2013

Change the Weather History Date:

Monday, August 19, 2013

  Actual Average (KFSM) Record (KFSM)
Temperature  
Mean Temperature 76 °F 82 °F  
Max Temperature 89 °F 94 °F 107 °F (2011)
Min Temperature 62 °F 71 °F 57 °F (1976)
Cooling Degree Days 10 17  
Month to date cooling degree days 339  
Year to date cooling degree days 1504  
Since 1 June cooling degree days 1260  
Growing Degree Days 26 (Base 50)    
Moisture  
Dew Point 69 °F    
Average Humidity 82    
Maximum Humidity 100    
Minimum Humidity 43    
Precipitation  
Precipitation 0.00 in 0.08 in 3.99 in (1915)
Month to date precipitation 1.62  
Year to date precipitation 28.39  
Sea Level Pressure  
Sea Level Pressure 30.07 in    
Wind  
Wind Speed 0 mph (NE)    
Max Wind Speed 4 mph    
Max Gust Speed -    
Visibility 8 miles    
Events Fog    
T = Trace of Precipitation, MM = Missing Value Source: NWS Daily Summary

Daily Weather History Graph

Daily Weather History Graph

Search for Another Location

Airport or City:

Trip Planner

Search our weather history database for the weather conditions in past years. The results will help you decide how hot, cold, wet, or windy it might be!

Date:

Astronomy

Aug. 19, 2013 Rise Set
Actual Time 6:41 AM CDT 8:01 PM CDT
Civil Twilight 6:15 AM CDT 8:28 PM CDT
Nautical Twilight 5:43 AM CDT 8:59 PM CDT
Astronomical Twilight 5:10 AM CDT 9:32 PM CDT
Moon 6:53 PM CDT (8/19) 5:03 AM CDT (8/19)
Length of Visible Light 14h 13m
Length of Day
13h 20m
Waxing Gibbous, 97% of the Moon is Illuminated
Aug 19
Waxing Gibbous
Aug 20
Full
Aug 28
Last Quarter
Sep 5
New
Sep 12
First Quarter

Hourly Weather History & Observations

Time (CDT) Temp. Heat Index Dew Point Humidity Pressure Visibility Wind Dir Wind Speed Gust Speed Precip Events Conditions
12:15 AM 71.6 °F - 69.8 °F 94% 30.09 in 10.0 mi Calm Calm - N/A   Clear
12:35 AM 71.6 °F - 69.8 °F 94% 30.08 in 10.0 mi Calm Calm - N/A   Clear
12:55 AM 71.6 °F - 69.8 °F 94% 30.08 in 10.0 mi Calm Calm - N/A   Clear
1:15 AM 69.8 °F - 69.8 °F 100% 30.08 in 7.0 mi Calm Calm - N/A   Clear
1:35 AM 69.8 °F - 69.8 °F 100% 30.08 in 10.0 mi Calm Calm - N/A   Clear
1:55 AM 68.0 °F - 68.0 °F 100% 30.08 in 10.0 mi Calm Calm - N/A   Clear
2:15 AM 68.0 °F - 68.0 °F 100% 30.08 in 7.0 mi Calm Calm - N/A   Clear
2:35 AM 68.0 °F - 68.0 °F 100% 30.08 in 7.0 mi Calm Calm - N/A   Clear
2:55 AM 68.0 °F - 68.0 °F 100% 30.08 in 5.0 mi Calm Calm - N/A   Clear
3:15 AM 68.0 °F - 68.0 °F 100% 30.08 in 3.0 mi Calm Calm - N/A   Clear
3:35 AM 66.2 °F - 66.2 °F 100% 30.08 in 3.0 mi Calm Calm - N/A   Clear
3:55 AM 66.2 °F - 66.2 °F 100% 30.08 in 1.8 mi Calm Calm - N/A   Scattered Clouds
4:15 AM 64.4 °F - 64.4 °F 100% 30.08 in 2.0 mi Calm Calm - N/A   Mostly Cloudy
4:35 AM 66.2 °F - 66.2 °F 100% 30.08 in 2.0 mi Calm Calm - N/A   Clear
4:55 AM 64.4 °F - 64.4 °F 100% 30.08 in 0.8 mi Calm Calm - N/A   Mostly Cloudy
5:15 AM 66.2 °F - 66.2 °F 100% 30.08 in 1.8 mi Calm Calm - N/A   Scattered Clouds
5:35 AM 64.4 °F - 64.4 °F 100% 30.08 in 1.5 mi Calm Calm - N/A   Mostly Cloudy
5:55 AM 64.4 °F - 64.4 °F 100% 30.08 in 0.2 mi Calm Calm - N/A Fog Fog
6:15 AM 64.4 °F - 64.4 °F 100% 30.08 in 1.5 mi Calm Calm - N/A   Overcast
6:35 AM 64.4 °F - 64.4 °F 100% 30.09 in 0.2 mi Calm Calm - N/A Fog Fog
6:55 AM 64.4 °F - 64.4 °F 100% 30.09 in 0.2 mi Calm Calm - N/A Fog Fog
7:15 AM 62.6 °F - 62.6 °F 100% 30.09 in 2.5 mi Calm Calm - N/A   Scattered Clouds
7:35 AM 64.4 °F - 64.4 °F 100% 30.10 in 4.0 mi Calm Calm - N/A   Clear
7:55 AM 66.2 °F - 66.2 °F 100% 30.11 in 5.0 mi Calm Calm - N/A   Clear
8:15 AM 68.0 °F - 68.0 °F 100% 30.12 in 7.0 mi Calm Calm - N/A   Clear
8:35 AM 71.6 °F - 71.6 °F 100% 30.13 in 10.0 mi Calm Calm - N/A   Clear
8:55 AM 71.6 °F - 71.6 °F 100% 30.13 in 10.0 mi Calm Calm - N/A   Clear
9:15 AM 71.6 °F - 69.8 °F 94% 30.13 in 10.0 mi Calm Calm - N/A   Clear
9:35 AM 77.0 °F - 71.6 °F 83% 30.13 in 10.0 mi Calm Calm - N/A   Clear
9:55 AM 77.0 °F - 69.8 °F 78% 30.13 in 10.0 mi Calm Calm - N/A   Clear
10:15 AM 77.0 °F - 69.8 °F 78% 30.14 in 10.0 mi Calm Calm - N/A   Clear
10:35 AM 78.8 °F - 69.8 °F 74% 30.13 in 10.0 mi Calm Calm - N/A   Clear
10:55 AM 80.6 °F 84.6 °F 71.6 °F 74% 30.13 in 10.0 mi Calm Calm - N/A   Clear
11:15 AM 80.6 °F 84.6 °F 71.6 °F 74% 30.12 in 10.0 mi Calm Calm - N/A   Clear
11:35 AM 80.6 °F 83.9 °F 69.8 °F 70% 30.11 in 10.0 mi Calm Calm - N/A   Clear
11:55 AM 80.6 °F 83.9 °F 69.8 °F 70% 30.11 in 10.0 mi Calm Calm - N/A   Clear
12:15 PM 82.4 °F 86.3 °F 69.8 °F 66% 30.10 in 10.0 mi Calm Calm - N/A   Clear
12:35 PM 82.4 °F 86.3 °F 69.8 °F 66% 30.09 in 10.0 mi Calm Calm - N/A   Clear
12:55 PM 84.2 °F 88.4 °F 69.8 °F 62% 30.09 in 10.0 mi Calm Calm - N/A   Clear
1:15 PM 84.2 °F 88.4 °F 69.8 °F 62% 30.08 in 10.0 mi Calm Calm - N/A   Clear
1:35 PM 84.2 °F 88.4 °F 69.8 °F 62% 30.08 in 10.0 mi Calm Calm - N/A   Clear
1:55 PM 86.0 °F 89.4 °F 68.0 °F 55% 30.08 in 10.0 mi Calm Calm - N/A   Clear
2:15 PM 86.0 °F 89.4 °F 68.0 °F 55% 30.08 in 10.0 mi Calm Calm - N/A   Clear
2:35 PM 86.0 °F 90.4 °F 69.8 °F 58% 30.07 in 10.0 mi Calm Calm - N/A   Clear
2:55 PM 87.8 °F 92.6 °F 69.8 °F 55% 30.06 in 10.0 mi Calm Calm - N/A   Clear
3:15 PM 89.6 °F 93.4 °F 68.0 °F 49% 30.06 in 10.0 mi Calm Calm - N/A   Clear
3:35 PM 87.8 °F 89.4 °F 64.4 °F 46% 30.05 in 10.0 mi ENE 3.5 mph - N/A   Clear
3:55 PM 87.8 °F 88.5 °F 62.6 °F 43% 30.04 in 10.0 mi Calm Calm - N/A   Clear
4:15 PM 89.6 °F 91.1 °F 64.4 °F 43% 30.03 in 10.0 mi Calm Calm - N/A   Clear
4:35 PM 89.6 °F 91.1 °F 64.4 °F 43% 30.03 in 10.0 mi Calm Calm - N/A   Clear
4:55 PM 87.8 °F 91.4 °F 68.0 °F 52% 30.02 in 10.0 mi Calm Calm - N/A   Clear
5:15 PM 87.8 °F 91.4 °F 68.0 °F 52% 30.02 in 10.0 mi NNE 3.5 mph - N/A   Clear
5:35 PM 87.8 °F 91.4 °F 68.0 °F 52% 30.02 in 10.0 mi Calm Calm - N/A   Clear
5:55 PM 86.0 °F 87.3 °F 64.4 °F 48% 30.01 in 10.0 mi North 3.5 mph - N/A   Clear
6:15 PM 86.0 °F 88.2 °F 66.2 °F 51% 30.01 in 10.0 mi Calm Calm - N/A   Clear
6:35 PM 84.2 °F 87.3 °F 68.0 °F 58% 30.01 in 10.0 mi Calm Calm - N/A   Clear
6:55 PM 82.4 °F 86.3 °F 69.8 °F 66% 30.00 in 10.0 mi Calm Calm - N/A   Clear
7:15 PM 82.4 °F 86.3 °F 69.8 °F 66% 30.00 in 10.0 mi Calm Calm - N/A   Clear
7:35 PM 80.6 °F 86.2 °F 75.2 °F 84% 30.01 in 10.0 mi Calm Calm - N/A   Clear
7:55 PM 78.8 °F - 73.4 °F 83% 30.01 in 10.0 mi Calm Calm - N/A   Clear
8:15 PM 77.0 °F - 73.4 °F 89% 30.00 in 10.0 mi Calm Calm - N/A   Clear
8:35 PM 77.0 °F - 73.4 °F 89% 30.01 in 10.0 mi Calm Calm - N/A   Clear
8:55 PM 77.0 °F - 73.4 °F 89% 30.01 in 10.0 mi Calm Calm - N/A   Clear
9:15 PM 73.4 °F - 71.6 °F 94% 30.02 in 10.0 mi Calm Calm - N/A   Clear
9:35 PM 73.4 °F - 71.6 °F 94% 30.02 in 10.0 mi Calm Calm - N/A   Clear
9:55 PM 71.6 °F - 71.6 °F 100% 30.03 in 10.0 mi Calm Calm - N/A   Clear
10:15 PM 71.6 °F - 69.8 °F 94% 30.03 in 10.0 mi Calm Calm - N/A   Clear
10:35 PM 71.6 °F - 69.8 °F 94% 30.04 in 10.0 mi Calm Calm - N/A   Clear
10:55 PM 71.6 °F - 69.8 °F 94% 30.04 in 10.0 mi Calm Calm - N/A   Clear
11:15 PM 71.6 °F - 69.8 °F 94% 30.04 in 10.0 mi Calm Calm - N/A   Clear
11:35 PM 71.6 °F - 69.8 °F 94% 30.04 in 10.0 mi Calm Calm - N/A   Clear
11:55 PM 71.6 °F - 69.8 °F 94% 30.04 in 10.0 mi Calm Calm - N/A   Clear